Location: Cherryland
(37.6794°N, 122.1033°W)
Time: 14:53:10
(UTC+00:00)

Cosmos 2221 - Pass Details

Date: 14 December 2025
Orbit: 569 x 590 km, 82.5° (Epoch: 17 January)

Event Time Altitude Azimuth Distance (km) Brightness Sun altitude
Rises 13:54:38 0° 356° (N) 2,778 5.7 -15.6°
Reaches altitude 10° 13:56:51 10° 360° (N) 1,876 4.8 -15.2°
Maximum altitude 14:00:56 63° 82° (E) 641 2.9 -14.4°
Drops below altitude 10° 14:05:01 10° 163° (SSE) 1,866 5.5 -13.6°
Sets 14:07:12 0° 167° (SSE) 2,761 6.4 -13.2°
